Regional Weather Roundup
Issued by NWS

Home | Current Version | Previous Version | Text Only | Print | Product List | Glossary On
Versions: 1 2 3 4 5 6 7 8 9 10 11 12 13 14 15 16 17 18 19 20 21 22 23 24 25 26 27 28 29 30 31 32 33 34 35 36 37 38 39 40 41 42 43 44 45 46 47 48 49 50
000
ASUS42 KTBW 040316
RWRFL
FLORIDA REGIONAL WEATHER ROUNDUP
NATIONAL WEATHER SERVICE TAMPA BAY RUSKIN FL
1100 PM EDT FRI JUL 03 2015

NOTE: "FAIR" INDICATES FEW OR NO CLOUDS BELOW 12,000 FEET WITH NO
SIGNIFICANT WEATHER AND/OR OBSTRUCTIONS TO VISIBILITY.


FLZ001>010-012>015-112-114-115-040400-
PANHANDLE FLORIDA

CITY           SKY/WX    TMP DP  RH WIND       PRES   REMARKS
PENSACOLA      PTCLDY    82  76  81 S12       30.03R
PENSACOLA NAS  PTCLDY    81  76  84 S9        30.02R
MILTON NAS     PTCLDY    80  75  84 S6        30.04
CRESTVIEW      PTCLDY    79  76  90 S5        30.05R
DUKE FIELD     FAIR      80  75  86 S7        30.03R
VALPARAISO     MOCLDY    82  76  81 SW6       30.04R
MARY ESTHER    PTCLDY    82  76  82 S8        30.03R
TRI COUNTY     FAIR      78  74  87 S5        30.06R
PANAMA CITY    FAIR      81  76  84 S6        30.05R
TYNDALL AFB    CLEAR     82  77  83 S7        30.06R
APALACHICOLA   CLEAR     85  75  72 SW7       30.08R

STATION/POSITION SKY/WX   TEMP    WIND        PRES    WAVE   SWELL
                          AIR SEA DIR/SP/G            HT/PER HT/PER
                          (F)     (DEG/KT/KT) (MB)    (FT/S) (FT/S)
30.1N   87.6W              84 83  200/ 10/ 12 1016.0    2/ 5   2/ 5
29.2N   88.2W              84 85  200/ 10/ 14 1017.6R   2/ 5   2/ 5
28.8N   86.0W              84 85  200/  6/  6 1018.5    2/ 7   2/ 7
PANAMA CITY BEAC           83 83  200/  8/  9 1017.1R
CAPE SAN BLAS    NOT AVBL
TOWER C                    83     200/  7/  8 1018.7R
28.5N   84.5W              85 87   CALM  /  2 1019.2R   2/ 7   2/ 7

$$
FLZ011-016>038-118-127-128-134-139-239-040400-
NORTH FLORIDA

CITY           SKY/WX    TMP DP  RH WIND       PRES   REMARKS
MARIANNA       PTCLDY    80  75  84 SW7       30.05R
TALLAHASSEE    PTCLDY    82  72  71 CALM      30.07R
PERRY            N/A     79  78  98 CALM      30.09S
CROSS CITY       N/A     79  74  84 CALM      30.09R
LAKE CITY      FAIR      79  72  78 W6        30.09S
GAINESVILLE    PTCLDY    77  71  82 CALM      30.09R
MAYPORT NAS    PTCLDY    83  71  67 S15       30.08R
JACKSONVILLE   MOCLDY    82  73  74 S7        30.07R
JAX NAS        CLOUDY    89  71  55 S14       30.09R HX  95
JAX CRAIG      PTCLDY    83  71  67 S8        30.08R
JAX CECIL      PTCLDY    81  72  74 S5        30.09R
FERNANDINA BEA FAIR      86  70  58 S9        30.06R
ST AUGUSTINE   PTCLDY    82  71  69 S8        30.10R

STATION/POSITION SKY/WX   TEMP    WIND        PRES    WAVE   SWELL
                          AIR SEA DIR/SP/G            HT/PER HT/PER
                          (F)     (DEG/KT/KT) (MB)    (FT/S) (FT/S)
SHELL POINT                83     230/ 12/ 14   N/A
KEATON BEACH               84     250/ 11/ 12 1018.8R
CEDAR KEY                  85     220/  3/  4 1019.6R
FERNANDINA                 82 79  160/  7/ 13 1017.4R
30.7N   81.3W                 78                N/A     3/ 9
MAYPORT                    83 77  180/  6/ 11 1018.5R
31.4N   80.9W              80 78  190/ 14/ 17 1017.7R   3/ 9   2/ 9
ST AUGUSTINE               81 73  200/  7/  9 1019.8R

$$
FLZ040-043>046-052-053-057-058-063-144-040400-
INTERIOR CENTRAL FLORIDA

CITY           SKY/WX    TMP DP  RH WIND       PRES   REMARKS
OCALA          CLOUDY    75  66  73 S9        30.12R
THE VILLAGES     N/A    N/A N/A N/A S6        30.02R
LEESBURG       CLOUDY    76  70  82 SE9       30.12R
SANFORD        CLOUDY    78  66  66 S6        30.11S
ORLANDO EXEC   CLOUDY    76  68  76 SE5       30.11S
ORLANDO INTL   CLOUDY    76  71  85 SE7       30.11F
WINTER HAVEN   LGT RAIN  75  72  90 S13G21    30.11F
LAKELAND       LGT RAIN  72  70  94 MISG      30.11F
BARTOW         LGT RAIN  72 N/A N/A CALM      30.11F
OKEECHOBEE     CLOUDY    73  72  94 NW9       30.16R

$$
FLZ041-047-054-059-064-141-147-040400-
EAST CENTRAL FLORIDA

CITY           SKY/WX    TMP DP  RH WIND       PRES   REMARKS
DAYTONA BEACH  CLOUDY    80  71  74 S6        30.11S
DELAND           N/A     81  72  74 SE6       30.12S
JFK SPACE CTR  MOCLDY    78  72  82 SW3       30.12R
CAPE CANAVERAL MOCLDY    80  75  84 SW6       30.11R
PATRICK AFB    MOCLDY    80  74  79 W13       30.13R
MELBOURNE      PTCLDY    77  72  84 SW7       30.13R
VERO BEACH     PTCLDY    82  74  76 S5        30.13R
FT PIERCE      MOCLDY    80  74  81 SW3       30.13R
STUART         PTCLDY    79  73  83 CALM      30.14R

STATION/POSITION SKY/WX   TEMP    WIND        PRES    WAVE   SWELL
                          AIR SEA DIR/SP/G            HT/PER HT/PER
                          (F)     (DEG/KT/KT) (MB)    (FT/S) (FT/S)
28.5N   80.2W              82 81  160/  8/  8 1019.8R
28.9N   78.5W              83 85  160/ 10/ 12 1020.3
TRIDENT PIER               81 80  180/  5/  8 1020.1R
28.4N   80.5W                 79                N/A     2/ 9
27.5N   80.2W                 81                N/A     2/ 9

$$
FLZ050-056-061-142-242-148-248-149-249-151-251-155-255-
160-260-040400-
WEST CENTRAL FLORIDA

CITY           SKY/WX    TMP DP  RH WIND       PRES   REMARKS
CRYSTAL RIVER  FAIR      77  68  73 CALM      30.11R
INVERNESS        N/A    N/A N/A N/A MISG        N/A
BROOKSVILLE    CLOUDY    75  69  81 S6        30.12R
ZEPHYRHILLS    FAIR      72  70  94 CALM      30.11S
CLEARWATER     CLOUDY    79  72  79 SE7       30.12R
TAMPA INTL     CLOUDY    79  69  71 SE8G17    30.12R
TAMPA EXEC     CLOUDY   N/A N/A N/A CALM      30.12S
PLANT CITY     CLOUDY    75  73  94 SE3       30.13S
MACDILL AFB    CLOUDY    75  74  95 SE13      30.12R
PETER O KNIGHT CLOUDY    79  72  78 SE9       30.12R
ST PETERSBURG  CLOUDY    79  73  82 SE13      30.10S
SARASOTA       CLOUDY    76  71  85 SE8       30.10S
VENICE         FAIR      77  70  78 E8        30.12S

STATION/POSITION SKY/WX   TEMP    WIND        PRES    WAVE   SWELL
                          AIR SEA DIR/SP/G            HT/PER HT/PER
                          (F)     (DEG/KT/KT) (MB)    (FT/S) (FT/S)
CEDAR KEY                  85     220/  3/  4 1019.6R
28.5N   84.5W              85 87   CALM  /  2 1019.2R   2/ 7   2/ 7
27.3N   84.2W                 88                N/A     1/ 6
CLEARWATER BEACH           82 89  110/ 11/ 15 1019.4R
MIDDLE TAMPA BAY                  130/ 15/ 19 1019.4S
VENICE                     78 89   90/  7/ 10 1019.6R

$$
FLZ066-069-070-075>078-162-262-165-265-040400-
SOUTHWEST FLORIDA AND KEYS

CITY           SKY/WX    TMP DP  RH WIND       PRES   REMARKS
PUNTA GORDA    LGT RAIN  73  72  96 N6        30.13F
FT MYERS       MOCLDY    74  73  97 CALM      30.10F
SOUTHWEST INTL MOCLDY    74  72  93 E6        30.11F
NAPLES         PTCLDY    75  72  90 NE5       30.11F
MARCO ISLAND   PTCLDY    73  66  78 NE5       30.12S
MARATHON       PTCLDY    85  73  67 E6        30.08S
KEY WEST NAS   PTCLDY    85  76  74 E13       30.09R
KEY WEST INTL  PTCLDY    85  79  82 E14       30.10R HX  98

STATION/POSITION SKY/WX   TEMP    WIND        PRES    WAVE   SWELL
                          AIR SEA DIR/SP/G            HT/PER HT/PER
                          (F)     (DEG/KT/KT) (MB)    (FT/S) (FT/S)
VENICE                     78 89   90/  7/ 10 1019.6R
NAPLES                        89              1020.7R
26.0N   85.6W              85 86   90/ 12/ 14 1018.1R   2/ 7   2/ 7
DRY TORTUGAS               85     100/ 11/ 12 1018.4R
NW FL BAY                  81     170/ 15/ 18 1018.7
SAND KEY                   85     100/ 14/ 17 1018.8R
SOMBRERO KEY               83     120/ 12/ 13 1019.4R
LONG KEY                   85 88  130/ 11/ 12 1019.7F
MOLASSES REEF              84 85   90/ 10/ 11 1019.3R

$$
FLZ067-068-071>074-168-172>174-040400-
SOUTHEAST FLORIDA

CITY           SKY/WX    TMP DP  RH WIND       PRES   REMARKS
W PALM BEACH   MOCLDY    83  75  77 SE7       30.13R
FT LAUDER-EXEC PTCLDY    84  74  71 E7        30.11R THUNDER
FT LAUDERDALE  MOCLDY    84  75  74 SE12      30.11R
POMPANO BEACH  PTCLDY    84  77  79 SE7       30.11S
PEMBROKE PINES MOCLDY    81  70  69 S10       30.13R
OPA LOCKA      PTCLDY    79  65  62 S8        30.12R
MIAMI          MOCLDY    79  68  69 SE10      30.12R THUNDER
WEST KENDALL   CLOUDY    81  74  79 NE8       30.13R THUNDER
HOMESTEAD      PTCLDY    81  77  89 SE3       30.11R THUNDER

STATION/POSITION SKY/WX   TEMP    WIND        PRES    WAVE   SWELL
                          AIR SEA DIR/SP/G            HT/PER HT/PER
                          (F)     (DEG/KT/KT) (MB)    (FT/S) (FT/S)
PORT EVERGLADES            85     130/  6/  9 1019.3R
VIRGINIA KEY               84 88  120/ 10/ 11 1018.8R
LAKE WORTH                 83 86  120/  9/ 11 1019.3R
SETTLEMENT POINT           82     150/  6/  7 1020.9R

$$




USA.gov is the U.S. government's official web portal to all federal, state and local government web resources and services.